Left ArrowRight Arrow

40.92501, -98.34201

Hourly Observations for June 14, 2024

Temp ( °F °C ) Dew Point ( °F °C ) Humidity (%) Winds ( mph kmh ) Pressure ( in mb ) Visibility ( mi km ) Precip ( " mm )
12:53 am 00:53 Clear 66 18.9 50 10 56 56 NNE 8 13 30.02 1017 10 16 0.00 0.00
1:53 am 01:53 Clear 64 17.8 50 10 60 60 NE 6 9 30.02 1017 10 16 0.00 0.00
2:53 am 02:53 Clear 64 17.8 50 10 60 60 NNE 3 6 30.04 1017 10 16 0.00 0.00
3:53 am 03:53 Cloudy 65 18.3 49 9.4 56 56 Calm 30.05 1018 10 16 0.00 0.00
4:53 am 04:53 Clear 60 15.6 52 11.1 75 75 NNE 3 6 30.04 1017 10 16 0.00 0.00
5:53 am 05:53 Clear 61 16.1 50 10 67 67 Calm 30.05 1018 10 16 0.00 0.00
6:53 am 06:53 Sunny 65 18.3 53 11.7 65 65 W 3 6 30.10 1019 10 16 0.00 0.00
7:53 am 07:53 Sunny 71 21.7 51 10.6 49 49 E 7 11 30.09 1019 10 16 0.00 0.00
8:53 am 08:53 Sunny 75 23.9 53 11.7 46 46 E 14 22 30.08 1019 10 16 0.00 0.00
9:53 am 09:53 Sunny 79 26.1 52 11.1 39 39 ESE 17 28 30.06 1018 10 16 0.00 0.00
10:53 am 10:53 Sunny 82 27.8 54 12.2 38 38 ESE 15 24 30.06 1018 10 16 0.00 0.00
11:53 am 11:53 Sunny 85 29.4 55 12.8 36 36 ESE 16 26 30.04 1017 10 16 0.00 0.00
12:53 pm 12:53 Sunny 87 30.6 55 12.8 34 34 SE 13 20 30.05 1018 10 16 0.00 0.00
1:53 pm 13:53 Sunny 88 31.1 54 12.2 31 31 SE 14 22 30.03 1017 10 16 0.00 0.00
2:53 pm 14:53 Sunny 90 32.2 59 15 35 35 SE 14 22 30.01 1016 10 16 0.00 0.00
3:53 pm 15:53 Sunny 89 31.7 59 15 36 36 SE 10 17 29.99 1016 10 16 0.00 0.00
4:53 pm 16:53 Sunny 88 31.1 59 15 38 38 SE 13 20 29.98 1015 10 16 0.00 0.00
5:53 pm 17:53 Sunny 86 30 60 15.6 42 42 SE 14 22 29.95 1014 10 16 0.00 0.00
6:53 pm 18:53 Sunny 85 29.4 60 15.6 43 43 SE 15 24 29.94 1014 10 16 0.00 0.00
7:53 pm 19:53 Sunny 84 28.9 61 16.1 46 46 ESE 13 20 29.93 1014 10 16 0.00 0.00
8:53 pm 20:53 Sunny 82 27.8 63 17.2 53 53 SE 12 19 29.92 1013 10 16 0.00 0.00
9:53 pm 21:53 Clear 80 26.7 63 17.2 56 56 SE 12 19 29.93 1013 10 16 0.00 0.00
10:53 pm 22:53 Clear 79 26.1 62 16.7 56 56 SE 17 28 29.92 1013 10 16 0.00 0.00
11:53 pm 23:53 Mostly Clear 78 25.6 63 17.2 60 60 SSE 15 24 29.93 1013 10 16 0.00 0.00

Powered by Vaisala Xweather